MOUNT RAINIER
GEOLOGY & WEATHER
Hello guest! [ Log In ]
morageology.com Water Data for Ohanapecosh RAWS at Ohanapecosh Ranger Station

Ohanapecosh RAWS at Ohanapecosh Ranger Station

Date Range to view:
 
[ Graphical View | Weather History ]

View this data in a CSV Format

GMT Date/Time Local Date/Time Air Temperature (°C) Dew Point Temperature (°C) 10-hour Fuel Temperature (°C) Relative Humidity (%) Wind Direction (°) Wind Speed (mph) Wind Gust Speed (mph) Rainfall (in) Solar Radiation (w/m2) Battery (V)
2023-11-29 08:41:00 2023-11-29 00:41:00 -3.3333 -3.6040 -3.3 98.0 4 0.00 0.00 21.33 0.00 12.7
2023-11-29 09:41:00 2023-11-29 01:41:00 -3.3333 -3.6040 -3.3 98.0 4 0.00 0.00 21.33 0.00 12.7
2023-11-29 10:41:00 2023-11-29 02:41:00 -3.3333 -3.6040 -3.3 98.0 4 0.00 0.00 21.33 0.00 12.7
2023-11-29 11:41:00 2023-11-29 03:41:00 -3.3333 -3.7412 -3.3 97.0 4 0.00 0.00 21.33 0.00 12.7
2023-11-29 12:41:00 2023-11-29 04:41:00 -3.8889 -4.2949 -3.9 97.0 4 0.00 0.00 21.33 0.00 12.7
2023-11-29 13:41:00 2023-11-29 05:41:00 -3.8889 -4.2949 -3.9 97.0 4 0.00 0.00 21.33 0.00 12.7
2023-11-29 14:41:00 2023-11-29 06:41:00 -3.8889 -4.2949 -3.9 97.0 4 0.00 0.00 21.33 0.00 12.7
2023-11-29 15:41:00 2023-11-29 07:41:00 -3.8889 -4.2949 -3.3 97.0 4 0.00 0.00 21.33 0.00 12.7
2023-11-29 16:41:00 2023-11-29 08:41:00 -2.7778 -3.0497 -2.8 98.0 4 0.00 0.00 21.33 7.00 12.7
2023-11-29 17:41:00 2023-11-29 09:41:00 -2.2222 -2.3582 -1.7 99.0 4 0.00 0.00 21.33 22.00 12.7
2023-11-29 18:41:00 2023-11-29 10:41:00 -1.1111 -1.2484 -1.1 99.0 4 0.00 0.00 21.33 37.00 12.8
2023-11-29 19:41:00 2023-11-29 11:41:00 -0.5556 -0.5556 -0.6 100.0 4 0.00 0.00 21.33 35.00 12.7
2023-11-29 20:41:00 2023-11-29 12:41:00 0.0000 0.0000 0.0 100.0 4 0.00 0.00 21.33 38.00 12.7
2023-11-29 21:41:00 2023-11-29 13:41:00 0.0000 0.0000 0.0 100.0 4 0.00 0.00 21.33 37.00 12.7
2023-11-29 22:41:00 2023-11-29 14:41:00 0.0000 0.0000 0.0 100.0 4 0.00 0.00 21.33 23.00 12.7
2023-11-29 23:41:00 2023-11-29 15:41:00 0.0000 0.0000 0.0 100.0 23 0.00 0.00 21.33 13.00 12.7
2023-11-30 00:41:00 2023-11-29 16:41:00 0.0000 0.0000 0.0 100.0 23 0.00 0.00 21.33 2.00 12.7
2023-11-30 01:41:00 2023-11-29 17:41:00 0.0000 0.0000 0.0 100.0 9 0.00 0.00 21.33 0.00 12.7
2023-11-30 02:41:00 2023-11-29 18:41:00 -0.5556 -0.5556 0.0 100.0 35 0.00 0.00 21.33 0.00 12.7
2023-11-30 03:41:00 2023-11-29 19:41:00 -0.5556 -0.5556 -0.6 100.0 35 0.00 0.00 21.33 0.00 12.7
2023-11-30 04:41:00 2023-11-29 20:41:00 -0.5556 -0.5556 -0.6 100.0 34 0.00 0.00 21.33 0.00 12.7
2023-11-30 05:41:00 2023-11-29 21:41:00 -0.5556 -0.5556 -0.6 100.0 35 0.00 0.00 21.33 0.00 12.7
2023-11-30 06:41:00 2023-11-29 22:41:00 -0.5556 -0.5556 -0.6 100.0 288 0.00 0.00 21.33 0.00 12.7
2023-11-30 07:41:00 2023-11-29 23:41:00 -0.5556 -0.5556 -0.6 100.0 331 0.00 0.00 21.33 0.00 12.7
2023-11-30 08:41:00 2023-11-30 00:41:00 -1.1111 -1.1111 -1.1 100.0 0 0.00 0.00 21.33 0.00 12.7
2023-11-30 09:41:00 2023-11-30 01:41:00 -1.1111 -1.1111 -1.1 100.0 51 0.00 0.00 21.33 0.00 12.7
2023-11-30 10:41:00 2023-11-30 02:41:00 -1.1111 -1.1111 -1.1 100.0 30 0.00 0.00 21.33 0.00 12.7
2023-11-30 11:41:00 2023-11-30 03:41:00 -1.1111 -1.1111 -1.1 100.0 342 0.00 0.00 21.33 0.00 12.7
2023-11-30 12:41:00 2023-11-30 04:41:00 -1.1111 -1.1111 -1.1 100.0 37 0.00 0.00 21.33 0.00 12.7
2023-11-30 13:41:00 2023-11-30 05:41:00 -1.1111 -1.1111 -0.6 100.0 37 0.00 0.00 21.33 0.00 12.7
2023-11-30 14:41:00 2023-11-30 06:41:00 -0.5556 -0.5556 -0.6 100.0 37 0.00 0.00 21.33 0.00 12.7
2023-11-30 15:41:00 2023-11-30 07:41:00 -0.5556 -0.5556 -0.6 100.0 37 0.00 0.00 21.33 0.00 12.7
2023-11-30 16:41:00 2023-11-30 08:41:00 -0.5556 -0.5556 -0.6 100.0 37 0.00 0.00 21.33 3.00 12.7
2023-11-30 17:41:00 2023-11-30 09:41:00 0.0000 0.0000 0.0 100.0 37 0.00 0.00 21.33 13.00 12.7
2023-11-30 18:41:00 2023-11-30 10:41:00 0.0000 0.0000 0.0 100.0 37 0.00 0.00 21.33 35.00 12.7
2023-11-30 19:41:00 2023-11-30 11:41:00 1.1111 1.1111 0.0 100.0 38 0.00 0.00 21.33 51.00 12.8
2023-11-30 20:41:00 2023-11-30 12:41:00 1.6667 1.6667 0.0 100.0 38 0.00 0.00 21.33 49.00 12.8
2023-11-30 21:41:00 2023-11-30 13:41:00 1.1111 1.1111 0.0 100.0 92 0.00 1.00 21.34 32.00 12.7
2023-11-30 22:41:00 2023-11-30 14:41:00 0.5556 0.5556 0.6 100.0 32 0.00 1.00 21.36 15.00 12.7
2023-11-30 23:41:00 2023-11-30 15:41:00 0.5556 0.5556 0.0 100.0 31 0.00 0.00 21.38 7.00 12.7
2023-12-01 00:41:00 2023-11-30 16:41:00 0.0000 0.0000 0.0 100.0 359 0.00 0.00 21.40 1.00 12.7
2023-12-01 01:41:00 2023-11-30 17:41:00 0.0000 0.0000 0.0 100.0 251 0.00 0.00 21.43 0.00 12.7
2023-12-01 02:41:00 2023-11-30 18:41:00 0.0000 0.0000 0.0 100.0 296 0.00 0.00 21.46 0.00 12.7
2023-12-01 03:41:00 2023-11-30 19:41:00 0.0000 0.0000 0.0 100.0 320 0.00 0.00 21.48 0.00 12.7
2023-12-01 04:41:00 2023-11-30 20:41:00 0.0000 0.0000 0.0 100.0 27 0.00 0.00 21.50 0.00 12.7
2023-12-01 05:41:00 2023-11-30 21:41:00 0.0000 0.0000 0.0 100.0 335 0.00 0.00 21.53 0.00 12.7
2023-12-01 06:41:00 2023-11-30 22:41:00 0.0000 0.0000 0.0 100.0 307 0.00 0.00 21.54 0.00 12.7
2023-12-01 07:41:00 2023-11-30 23:41:00 0.0000 0.0000 0.0 100.0 317 0.00 0.00 21.55 0.00 12.7
2023-12-01 08:41:00 2023-12-01 00:41:00 0.0000 0.0000 0.0 100.0 21 0.00 0.00 21.56 0.00 12.7
2023-12-01 09:41:00 2023-12-01 01:41:00 0.0000 0.0000 0.0 100.0 46 0.00 0.00 21.56 0.00 12.7
2023-12-01 10:41:00 2023-12-01 02:41:00 0.0000 0.0000 0.0 100.0 9 0.00 0.00 21.57 0.00 12.7
2023-12-01 11:41:00 2023-12-01 03:41:00 0.0000 0.0000 0.0 100.0 9 0.00 0.00 21.60 0.00 12.7
2023-12-01 12:41:00 2023-12-01 04:41:00 0.0000 0.0000 0.0 100.0 9 0.00 0.00 21.61 0.00 12.7
2023-12-01 13:41:00 2023-12-01 05:41:00 0.0000 0.0000 0.0 100.0 9 0.00 0.00 21.61 0.00 12.7
2023-12-01 14:41:00 2023-12-01 06:41:00 0.0000 0.0000 0.0 100.0 11 0.00 0.00 21.61 0.00 12.7
2023-12-01 15:41:00 2023-12-01 07:41:00 0.0000 0.0000 0.0 100.0 9 0.00 0.00 21.61 0.00 12.7
2023-12-01 16:41:00 2023-12-01 08:41:00 0.0000 0.0000 0.0 100.0 17 0.00 0.00 21.61 0.00 12.7
2023-12-01 17:41:00 2023-12-01 09:41:00 0.0000 0.0000 0.0 100.0 236 0.00 0.00 21.69 0.00 12.7
2023-12-01 18:41:00 2023-12-01 10:41:00 0.0000 0.0000 0.0 100.0 94 0.00 0.00 21.72 0.00 12.7
2023-12-01 19:41:00 2023-12-01 11:41:00 0.0000 0.0000 0.0 100.0 172 0.00 0.00 21.78 0.00 12.7
2023-12-01 20:41:00 2023-12-01 12:41:00 0.0000 0.0000 0.0 100.0 232 0.00 0.00 21.83 1.00 12.7
2023-12-01 21:41:00 2023-12-01 13:41:00 0.0000 0.0000 0.0 100.0 356 0.00 0.00 21.91 2.00 12.7
2023-12-01 22:41:00 2023-12-01 14:41:00 0.0000 0.0000 0.0 100.0 353 0.00 0.00 22.02 12.00 12.7
2023-12-01 23:41:00 2023-12-01 15:41:00 0.0000 0.0000 0.0 100.0 336 0.00 0.00 22.11 2.00 12.7
2023-12-02 00:41:00 2023-12-01 16:41:00 0.0000 0.0000 0.0 100.0 323 0.00 0.00 22.20 0.00 12.7
2023-12-02 01:41:00 2023-12-01 17:41:00 0.0000 0.0000 0.0 100.0 340 0.00 0.00 22.30 0.00 12.7
2023-12-02 02:41:00 2023-12-01 18:41:00 0.0000 0.0000 0.0 100.0 332 0.00 0.00 22.38 0.00 12.7
2023-12-02 03:41:00 2023-12-01 19:41:00 0.0000 0.0000 0.0 100.0 331 0.00 0.00 22.45 0.00 12.7
2023-12-02 04:41:00 2023-12-01 20:41:00 0.0000 0.0000 0.0 100.0 345 0.00 0.00 22.53 0.00 12.7
2023-12-02 05:41:00 2023-12-01 21:41:00 0.0000 0.0000 0.0 100.0 344 0.00 0.00 22.59 0.00 12.7
2023-12-02 06:41:00 2023-12-01 22:41:00 0.0000 0.0000 0.0 100.0 344 0.00 0.00 22.62 0.00 12.7
2023-12-02 07:41:00 2023-12-01 23:41:00 0.0000 0.0000 0.0 100.0 344 0.00 0.00 22.71 0.00 12.7
2023-12-02 08:41:00 2023-12-02 00:41:00 0.0000 0.0000 0.0 100.0 346 0.00 0.00 22.77 0.00 12.7
2023-12-02 09:41:00 2023-12-02 01:41:00 0.0000 0.0000 0.0 100.0 346 0.00 0.00 22.86 0.00 12.7
2023-12-02 10:41:00 2023-12-02 02:41:00 0.0000 0.0000 0.0 100.0 346 0.00 0.00 22.92 0.00 12.7
2023-12-02 11:41:00 2023-12-02 03:41:00 0.0000 0.0000 0.0 100.0 345 0.00 0.00 22.98 0.00 12.7
2023-12-02 12:41:00 2023-12-02 04:41:00 0.0000 0.0000 0.0 100.0 344 0.00 0.00 23.03 0.00 12.7
2023-12-02 13:41:00 2023-12-02 05:41:00 0.0000 0.0000 0.0 100.0 350 0.00 0.00 23.10 0.00 12.7
2023-12-02 14:41:00 2023-12-02 06:41:00 0.0000 0.0000 0.0 100.0 235 0.00 0.00 23.17 0.00 12.7
2023-12-02 15:41:00 2023-12-02 07:41:00 0.0000 0.0000 0.0 100.0 154 0.00 0.00 23.24 0.00 12.7
2023-12-02 16:41:00 2023-12-02 08:41:00 0.0000 0.0000 0.0 100.0 314 0.00 0.00 23.33 0.00 12.7
2023-12-02 17:41:00 2023-12-02 09:41:00 0.0000 0.0000 0.0 100.0 267 0.00 0.00 23.41 1.00 12.7
2023-12-02 18:41:00 2023-12-02 10:41:00 0.5556 0.5556 0.0 100.0 325 0.00 4.00 23.50 4.00 12.8
2023-12-02 19:41:00 2023-12-02 11:41:00 0.5556 0.5556 0.6 100.0 4 0.00 5.00 23.58 5.00 12.9
2023-12-02 20:41:00 2023-12-02 12:41:00 0.5556 0.5556 0.6 100.0 328 0.00 2.00 23.65 5.00 12.9
2023-12-02 21:41:00 2023-12-02 13:41:00 0.5556 0.5556 0.0 100.0 119 1.00 3.00 23.73 2.00 12.9
2023-12-02 22:41:00 2023-12-02 14:41:00 0.5556 0.5556 0.0 100.0 4 0.00 5.00 23.86 2.00 12.8
2023-12-03 01:41:00 2023-12-02 17:41:00 0.0000 0.0000 0.0 100.0 94 0.00 1.00 24.05 0.00 12.7
2023-12-03 02:41:00 2023-12-02 18:41:00 0.0000 0.0000 0.0 100.0 166 0.00 0.00 24.10 0.00 12.7
2023-12-03 03:41:00 2023-12-02 19:41:00 0.5556 0.5556 0.0 100.0 165 0.00 2.00 24.15 0.00 12.7
2023-12-03 04:41:00 2023-12-02 20:41:00 0.0000 0.0000 0.0 100.0 162 0.00 0.00 24.18 0.00 12.7
2023-12-03 05:41:00 2023-12-02 21:41:00 0.0000 0.0000 0.0 100.0 33 0.00 0.00 24.22 0.00 12.7
2023-12-03 06:41:00 2023-12-02 22:41:00 0.0000 0.0000 0.0 100.0 33 0.00 0.00 24.25 0.00 12.7
2023-12-03 07:41:00 2023-12-02 23:41:00 0.0000 0.0000 0.0 100.0 326 0.00 0.00 24.28 0.00 12.7
2023-12-03 08:41:00 2023-12-03 00:41:00 0.0000 0.0000 0.0 100.0 276 0.00 0.00 24.30 0.00 12.7
2023-12-03 09:41:00 2023-12-03 01:41:00 0.0000 0.0000 0.0 100.0 357 0.00 0.00 24.33 0.00 12.7
2023-12-03 10:41:00 2023-12-03 02:41:00 0.0000 0.0000 0.0 100.0 357 0.00 0.00 24.34 0.00 12.7
2023-12-03 11:41:00 2023-12-03 03:41:00 0.0000 0.0000 0.0 100.0 3 0.00 0.00 24.36 0.00 12.7
2023-12-03 12:41:00 2023-12-03 04:41:00 0.0000 0.0000 0.0 100.0 3 0.00 0.00 24.39 0.00 12.7
2023-12-03 13:41:00 2023-12-03 05:41:00 0.0000 0.0000 0.0 100.0 3 0.00 0.00 24.48 0.00 12.7
2023-12-03 14:41:00 2023-12-03 06:41:00 0.0000 0.0000 0.0 100.0 355 0.00 0.00 24.61 0.00 12.7
2023-12-03 15:41:00 2023-12-03 07:41:00 0.0000 0.0000 0.0 100.0 356 0.00 1.00 24.73 0.00 12.7
2023-12-03 16:41:00 2023-12-03 08:41:00 0.0000 0.0000 0.0 100.0 16 0.00 0.00 24.82 0.00 12.7
2023-12-03 17:41:00 2023-12-03 09:41:00 0.5556 0.5556 0.0 100.0 311 0.00 0.00 24.93 0.00 12.7
2023-12-03 18:41:00 2023-12-03 10:41:00 0.5556 0.5556 0.6 100.0 322 0.00 3.00 24.98 2.00 12.7
2023-12-03 19:41:00 2023-12-03 11:41:00 1.1111 1.1111 0.6 100.0 356 0.00 0.00 25.13 3.00 12.7
2023-12-03 20:41:00 2023-12-03 12:41:00 1.1111 1.1111 0.6 100.0 61 0.00 1.00 25.25 4.00 12.7
2023-12-03 21:41:00 2023-12-03 13:41:00 1.6667 1.6667 0.6 100.0 74 0.00 2.00 25.31 6.00 12.7
2023-12-03 22:41:00 2023-12-03 14:41:00 1.6667 1.6667 0.6 100.0 337 0.00 3.00 25.33 8.00 12.7
2023-12-03 23:41:00 2023-12-03 15:41:00 1.1111 1.1111 0.6 100.0 29 0.00 1.00 25.34 10.00 12.7
2023-12-04 00:41:00 2023-12-03 16:41:00 1.1111 1.1111 0.6 100.0 12 0.00 2.00 25.34 1.00 12.7
2023-12-04 01:41:00 2023-12-03 17:41:00 0.5556 0.5556 0.6 100.0 11 0.00 2.00 25.34 0.00 12.7
2023-12-04 02:41:00 2023-12-03 18:41:00 0.5556 0.5556 0.6 100.0 358 0.00 2.00 25.34 0.00 12.7
2023-12-04 03:41:00 2023-12-03 19:41:00 1.1111 1.1111 0.6 100.0 87 0.00 1.00 25.34 0.00 12.7
2023-12-04 04:41:00 2023-12-03 20:41:00 0.5556 0.5556 0.6 100.0 36 0.00 2.00 25.34 0.00 12.7
2023-12-04 05:41:00 2023-12-03 21:41:00 0.5556 0.5556 0.6 100.0 3 0.00 2.00 25.34 0.00 12.7
2023-12-04 06:41:00 2023-12-03 22:41:00 1.1111 1.1111 0.6 100.0 142 0.00 2.00 25.34 0.00 12.7
2023-12-04 07:41:00 2023-12-03 23:41:00 0.0000 0.0000 0.0 100.0 144 0.00 1.00 25.34 0.00 12.7
2023-12-04 08:41:00 2023-12-04 00:41:00 0.0000 0.0000 0.0 100.0 294 0.00 0.00 25.34 0.00 12.7
2023-12-04 09:41:00 2023-12-04 01:41:00 0.0000 0.0000 0.0 100.0 56 0.00 0.00 25.34 0.00 12.7
2023-12-04 10:41:00 2023-12-04 02:41:00 0.0000 0.0000 0.0 100.0 325 0.00 1.00 25.34 0.00 12.7
2023-12-04 11:41:00 2023-12-04 03:41:00 0.0000 0.0000 0.0 100.0 318 0.00 2.00 25.34 0.00 12.7
2023-12-04 12:41:00 2023-12-04 04:41:00 0.0000 0.0000 0.0 100.0 304 0.00 2.00 25.34 0.00 12.7
2023-12-04 13:41:00 2023-12-04 05:41:00 0.0000 0.0000 0.0 100.0 11 0.00 1.00 25.34 0.00 12.7
2023-12-04 14:41:00 2023-12-04 06:41:00 0.5556 0.5556 0.0 100.0 1 0.00 2.00 25.34 0.00 12.7
2023-12-04 15:41:00 2023-12-04 07:41:00 0.5556 0.5556 0.0 100.0 7 0.00 1.00 25.48 0.00 12.7
2023-12-04 16:41:00 2023-12-04 08:41:00 1.1111 1.1111 0.6 100.0 3 0.00 1.00 25.62 3.00 12.7
2023-12-04 17:41:00 2023-12-04 09:41:00 1.6667 1.6667 1.1 100.0 115 0.00 1.00 25.74 9.00 12.7
2023-12-04 18:41:00 2023-12-04 10:41:00 1.1111 1.1111 1.1 100.0 2 0.00 1.00 25.83 12.00 12.7
2023-12-04 19:41:00 2023-12-04 11:41:00 1.6667 1.6667 1.1 100.0 359 0.00 1.00 25.94 14.00 12.7
2023-12-04 20:41:00 2023-12-04 12:41:00 1.6667 1.6667 1.1 100.0 2 0.00 1.00 26.03 14.00 12.7
2023-12-04 21:41:00 2023-12-04 13:41:00 2.2222 2.2222 1.7 100.0 8 0.00 2.00 26.09 20.00 12.7
2023-12-04 22:41:00 2023-12-04 14:41:00 1.6667 1.6667 1.1 100.0 348 0.00 1.00 26.10 14.00 12.7
2023-12-04 23:41:00 2023-12-04 15:41:00 2.2222 2.2222 1.7 100.0 348 0.00 2.00 26.15 7.00 12.7
2023-12-05 00:41:00 2023-12-04 16:41:00 1.6667 1.6667 1.1 100.0 357 0.00 3.00 26.16 1.00 12.7
2023-12-05 01:41:00 2023-12-04 17:41:00 1.6667 1.6667 1.1 100.0 25 0.00 2.00 26.17 0.00 12.7
2023-12-05 02:41:00 2023-12-04 18:41:00 1.6667 1.6667 1.1 100.0 356 0.00 1.00 26.20 0.00 12.7
2023-12-05 03:41:00 2023-12-04 19:41:00 1.6667 1.6667 1.1 100.0 7 0.00 2.00 26.24 0.00 12.7
2023-12-05 04:41:00 2023-12-04 20:41:00 1.6667 1.6667 1.1 100.0 17 0.00 1.00 26.29 0.00 12.7
2023-12-05 05:41:00 2023-12-04 21:41:00 1.6667 1.6667 1.1 100.0 0 0.00 0.00 26.37 0.00 12.7
2023-12-05 06:41:00 2023-12-04 22:41:00 2.2222 2.2222 1.1 100.0 26 0.00 1.00 26.52 0.00 12.7
2023-12-05 07:41:00 2023-12-04 23:41:00 2.2222 2.2222 1.7 100.0 11 0.00 3.00 26.68 0.00 12.7
2023-12-05 08:41:00 2023-12-05 00:41:00 2.7778 2.7778 1.7 100.0 353 0.00 1.00 26.92 0.00 12.7
2023-12-05 09:41:00 2023-12-05 01:41:00 2.7778 2.7778 2.2 100.0 352 0.00 2.00 27.13 0.00 12.7
2023-12-05 10:41:00 2023-12-05 02:41:00 3.3333 3.3333 2.8 100.0 8 0.00 2.00 27.33 0.00 12.7
2023-12-05 11:41:00 2023-12-05 03:41:00 3.3333 3.3333 2.2 100.0 9 0.00 1.00 27.46 0.00 12.7
2023-12-05 12:41:00 2023-12-05 04:41:00 3.3333 3.3333 2.2 100.0 343 0.00 2.00 27.58 0.00 12.7
2023-12-05 13:41:00 2023-12-05 05:41:00 3.3333 3.3333 2.8 100.0 360 0.00 1.00 27.75 0.00 12.7
2023-12-05 14:41:00 2023-12-05 06:41:00 3.8889 3.8889 2.8 100.0 353 0.00 2.00 27.98 0.00 12.7
2023-12-05 15:41:00 2023-12-05 07:41:00 3.8889 3.8889 2.8 100.0 352 0.00 0.00 28.14 0.00 12.7
2023-12-05 16:41:00 2023-12-05 08:41:00 3.8889 3.8889 2.8 100.0 352 0.00 2.00 28.29 2.00 12.7
2023-12-05 17:41:00 2023-12-05 09:41:00 3.8889 3.8889 2.8 100.0 13 0.00 0.00 28.42 6.00 12.7
2023-12-05 18:41:00 2023-12-05 10:41:00 3.8889 3.8889 3.3 100.0 13 0.00 0.00 28.54 11.00 12.7
2023-12-05 19:41:00 2023-12-05 11:41:00 3.8889 3.8889 3.3 100.0 13 0.00 0.00 28.66 15.00 12.7
2023-12-05 20:41:00 2023-12-05 12:41:00 3.8889 3.8889 3.3 100.0 0 0.00 0.00 28.80 12.00 12.7
2023-12-05 21:41:00 2023-12-05 13:41:00 4.4444 4.4444 3.3 100.0 12 0.00 0.00 28.92 12.00 12.7
2023-12-05 22:41:00 2023-12-05 14:41:00 3.8889 3.8889 3.3 100.0 0 0.00 0.00 29.12 6.00 12.7
2023-12-05 23:41:00 2023-12-05 15:41:00 3.8889 3.8889 3.3 100.0 0 0.00 0.00 29.31 3.00 12.7
2023-12-06 00:41:00 2023-12-05 16:41:00 4.4444 4.4444 3.3 100.0 0 0.00 1.00 29.50 0.00 12.7
2023-12-06 01:41:00 2023-12-05 17:41:00 3.8889 3.8889 2.8 100.0 0 0.00 0.00 29.60 0.00 12.7
2023-12-06 02:41:00 2023-12-05 18:41:00 3.3333 3.3333 2.8 100.0 0 0.00 0.00 29.67 0.00 12.7
2023-12-06 03:41:00 2023-12-05 19:41:00 3.8889 3.8889 3.3 100.0 0 0.00 0.00 29.76 0.00 12.7
2023-12-06 04:41:00 2023-12-05 20:41:00 3.8889 3.8889 2.8 100.0 0 0.00 0.00 29.89 0.00 12.7
2023-12-06 05:41:00 2023-12-05 21:41:00 3.8889 3.8889 2.8 100.0 0 0.00 0.00 30.05 0.00 12.7
2023-12-06 06:41:00 2023-12-05 22:41:00 3.8889 3.8889 2.8 100.0 0 0.00 0.00 30.18 0.00 12.7
2023-12-06 07:41:00 2023-12-05 23:41:00 3.8889 3.8889 3.3 100.0 0 0.00 0.00 30.32 0.00 12.7